Wind_Speed
11 19 21 22 23 24 25 26 25 24 24 24 24 23 22 23 25 27 26 25 25 25 25 25 26 27 26 26 27 27 27 26 25 24 24 24 25 24 23 22 22 22 22 22 21 21 21 20 20 20 21 23 25 26 27 28 29 29 29 28 27 27 28 28 27 25 22 22 24 25 26 28 28 27 26 26 27 28 28 29 29 29 29 28 25
12 17 19 22 23 25 26 24 23 23 23 23 23 23 22 24 27 29 29 27 27 27 27 26 27 27 27 27 27 27 26 26 27 27 27 27 26 26 26 25 24 23 23 23 23 23 23 22 22 21 20 21 23 24 26 27 28 29 28 28 27 26 26 27 26 20 14 13 15 16 20 24 21 18 20 20 19 19 20 22 23 24 24 24 23
10 12 17 23 25 26 24 22 22 22 23 23 23 24 25 26 29 30 29 28 28 28 28 28 27 26 27 27 27 27 26 25 26 27 28 28 28 28 28 28 27 26 24 24 25 25 25 25 24 23 21 21 23 24 24 26 27 29 28 28 27 25 24 26 26 20 15 14 12 8 7 10 11 11 14 14 14 16 17 18 18 19 20 20 20
8 9 14 21 23 23 22 20 20 22 25 25 25 26 27 28 30 30 29 29 29 30 30 29 28 27 27 27 27 27 27 26 26 25 26 27 28 28 28 29 30 30 29 27 27 27 27 28 27 26 24 22 23 25 25 25 26 27 29 28 25 24 23 23 24 21 18 14 7 3 2 4 5 6 9 15 18 18 15 12 12 14 15 16 17
9 9 10 16 19 18 19 20 21 24 26 26 26 27 28 28 30 31 30 30 31 32 32 31 30 29 30 30 30 28 28 27 27 26 27 28 29 29 29 29 30 31 32 32 31 30 29 30 30 29 27 25 24 25 26 25 26 26 28 28 26 25 24 23 22 21 20 18 12 7 3 2 3 4 9 14 14 13 13 14 16 16 16 16 16
9 9 10 14 16 17 19 22 24 26 25 26 26 28 28 29 30 31 31 31 31 32 32 31 31 30 30 30 29 28 27 26 26 28 29 29 30 31 31 29 28 29 30 32 34 34 32 32 33 33 31 29 27 27 27 26 26 26 26 28 28 28 26 23 23 24 24 23 21 18 15 12 9 7 7 7 9 15 19 19 19 19 18 17 16
8 9 11 14 15 18 20 23 26 25 25 26 27 28 30 30 31 32 31 30 32 32 32 32 31 29 28 27 26 25 25 26 27 29 29 30 31 32 32 31 29 29 29 29 30 32 32 33 35 36 35 34 32 30 29 28 28 27 27 28 29 28 26 24 25 27 23 22 23 25 26 25 21 14 7 5 9 13 15 16 16 18 19 20 19
7 7 9 13 15 18 19 22 24 24 25 27 28 29 30 31 32 32 31 31 32 32 32 32 30 29 28 27 25 25 25 27 29 29 29 30 31 31 32 32 30 29 28 27 27 28 30 32 34 36 37 37 36 34 33 31 29 28 28 29 29 29 28 27 28 26 22 22 23 23 25 27 26 23 18 13 7 7 11 16 21 23 23 25 26
6 6 8 13 15 16 18 21 23 24 26 27 28 30 31 32 32 32 32 32 32 32 32 31 30 28 27 26 27 27 27 27 27 27 28 29 30 30 30 30 29 28 27 27 27 28 29 30 31 33 35 37 38 37 36 35 32 31 30 30 30 31 30 29 29 28 26 26 24 22 22 22 22 23 23 19 11 9 10 9 13 18 19 22 24
6 8 11 14 16 17 19 21 23 24 26 28 30 31 32 32 32 31 31 31 31 31 32 31 29 28 28 29 29 28 27 27 27 27 28 29 29 30 30 30 30 29 27 27 27 28 28 28 29 30 32 34 36 37 37 37 36 34 33 32 32 32 31 30 31 31 29 29 27 24 22 19 15 14 16 17 14 12 10 8 9 12 13 19 21
4 7 11 14 17 19 21 22 23 25 27 29 31 32 31 30 29 29 30 30 30 31 31 30 28 27 29 28 26 25 27 28 29 30 30 30 29 29 30 30 29 29 28 28 29 29 29 28 28 30 31 32 33 34 35 36 38 38 37 34 33 33 32 32 33 33 31 30 29 27 26 24 19 14 14 17 13 9 9 8 9 12 14 20 22
4 5 9 13 17 19 20 22 22 24 26 28 29 29 28 28 28 29 30 29 29 30 30 28 26 26 26 24 24 27 31 32 31 31 30 30 30 31 31 30 29 28 28 29 29 27 26 26 26 27 29 30 32 33 34 36 37 39 39 37 36 35 34 33 33 34 33 32 32 31 31 30 27 25 23 22 18 15 12 7 9 12 12 19 24
5 5 7 11 13 15 18 19 20 21 23 25 28 27 27 28 29 29 28 28 29 29 27 26 25 24 23 24 28 32 32 30 28 28 28 28 30 31 32 31 30 29 28 27 26 25 25 26 26 26 27 28 30 32 34 35 36 37 39 39 39 38 37 36 36 37 35 34 34 33 32 31 31 31 29 26 24 22 17 10 11 13 9 14 21
5 5 6 9 12 14 15 16 17 19 22 25 27 27 27 29 27 26 27 28 28 26 25 25 24 22 24 28 32 31 28 26 26 27 27 27 29 30 30 29 28 28 27 25 26 28 28 28 28 29 29 28 28 30 31 33 35 37 38 39 40 40 39 38 38 38 36 36 35 33 33 33 33 32 30 28 27 24 20 14 11 12 11 12 16
5 6 7 10 12 13 14 16 18 20 23 26 27 27 28 27 24 25 27 27 26 25 25 24 22 25 30 32 30 28 27 27 27 26 26 27 29 29 27 27 28 27 25 26 29 30 30 30 30 30 30 30 29 30 30 31 33 35 37 39 40 40 38 38 38 37 36 36 35 34 34 34 34 32 30 30 30 27 26 23 15 9 9 9 10
5 5 6 9 12 13 15 17 19 22 24 25 26 27 25 22 23 26 27 26 26 26 24 23 27 31 32 28 27 27 27 27 26 26 27 29 29 27 27 28 29 28 28 31 33 33 33 34 34 32 31 31 31 31 31 31 32 33 35 37 39 38 36 38 39 37 37 37 35 35 35 35 35 33 31 31 32 30 29 29 23 13 9 8 7
5 5 6 8 12 14 17 19 21 22 22 22 24 25 21 21 25 27 27 27 27 23 23 28 32 31 27 25 26 26 25 27 30 31 31 29 29 28 26 27 30 32 34 35 35 34 35 36 37 37 36 35 34 33 32 32 33 33 33 34 36 36 35 37 38 36 35 35 34 35 35 36 36 33 32 32 31 32 31 30 28 23 16 9 7
4 5 6 10 13 15 17 18 18 19 19 21 25 24 20 23 28 26 27 28 24 23 28 33 31 27 26 25 24 23 26 32 35 33 29 27 29 28 26 31 38 38 36 34 33 35 36 37 38 39 39 38 37 37 36 34 34 33 33 33 33 33 32 34 35 33 33 32 32 33 34 35 36 34 34 35 33 32 33 31 30 29 25 17 10
3 4 5 10 13 14 15 15 17 19 19 23 27 23 20 25 27 24 26 26 23 27 33 32 28 27 26 23 22 25 33 39 35 29 26 28 28 25 27 35 40 37 33 31 32 34 35 35 35 36 37 36 35 36 35 34 32 31 31 31 31 31 30 32 33 32 32 31 31 33 33 34 35 34 34 35 34 34 34 33 31 30 29 26 19
2 3 5 9 11 12 13 16 19 20 21 25 27 22 21 25 25 24 26 25 25 30 33 29 27 27 24 21 24 32 41 41 32 27 27 27 25 25 29 34 34 32 31 30 30 31 32 34 35 35 36 35 33 33 32 32 33 32 32 31 30 29 29 31 31 31 31 31 32 33 33 34 34 34 35 35 35 35 34 33 33 31 30 29 26
2 3 6 8 10 12 15 19 20 20 23 26 25 21 22 24 23 24 26 26 27 30 29 28 27 25 22 23 30 40 44 37 28 27 26 24 25 27 29 31 32 32 31 30 30 30 31 33 34 34 32 31 31 30 30 30 32 35 37 36 34 31 30 31 31 30 30 30 31 32 34 35 34 34 35 34 34 34 34 33 32 31 30 28 27
2 4 7 9 12 14 16 19 21 21 24 24 22 21 22 23 22 24 25 26 28 29 27 27 27 24 22 27 37 43 39 29 26 27 25 24 27 29 30 32 33 32 30 29 30 31 31 32 32 31 30 30 30 31 32 32 32 34 36 37 37 34 31 29 29 29 29 28 29 31 33 34 34 34 36 35 34 34 33 33 32 30 29 29 27
4 6 9 11 12 15 17 20 21 22 23 22 21 21 21 20 22 23 23 24 27 27 26 27 26 22 24 33 42 40 31 26 26 26 26 27 28 29 31 32 32 31 29 29 30 31 31 31 31 30 30 31 31 32 33 33 33 35 35 35 36 35 33 31 29 28 28 27 28 31 32 32 32 33 36 36 35 34 32 32 32 31 29 28 28
5 7 10 12 13 16 18 20 20 20 20 19 19 20 18 18 20 21 21 25 28 27 27 28 25 22 29 39 41 35 29 28 28 27 28 29 29 30 31 31 30 30 30 30 30 31 31 31 30 30 31 31 32 32 32 32 32 33 34 34 34 34 34 34 32 31 29 28 29 31 32 32 31 33 34 34 33 33 32 31 30 29 29 28 27
6 7 10 12 14 16 16 17 17 17 17 17 18 19 18 19 20 21 22 27 29 27 28 28 24 24 34 40 35 30 29 30 29 29 29 29 30 31 31 30 30 31 30 31 31 31 31 31 30 31 32 33 33 34 35 35 34 33 34 35 34 32 31 31 31 31 30 30 30 32 32 31 32 32 33 32 32 32 31 30 28 28 27 26 26
7 7 8 9 12 13 13 14 15 15 15 16 18 19 20 21 22 22 25 30 30 27 28 27 24 28 35 34 29 27 28 28 28 28 29 30 31 31 31 30 30 31 32 33 32 31 31 31 32 32 33 34 34 35 35 35 35 35 35 34 33 32 32 32 32 33 33 33 33 34 34 33 33 33 33 31 31 31 31 29 28 27 27 26 25
6 5 5 7 10 11 12 13 15 15 16 17 19 21 22 23 22 23 26 30 29 27 27 26 25 28 31 28 27 28 28 28 29 29 29 30 30 31 31 30 31 32 34 34 33 33 32 32 34 34 34 34 35 34 33 32 33 34 34 33 32 32 32 33 35 36 36 36 35 35 35 35 35 35 34 33 31 31 30 29 29 27 26 25 24
6 5 5 8 9 10 12 14 15 16 18 19 20 22 23 23 22 24 27 29 28 26 25 24 24 26 28 27 28 29 28 29 30 30 30 31 31 31 31 32 33 34 34 34 35 36 37 36 36 35 35 34 34 33 33 33 34 35 36 36 36 35 34 33 33 33 33 33 34 35 36 36 36 36 36 35 33 31 29 28 28 27 26 25 23
7 5 6 8 9 11 14 16 17 18 19 20 21 23 24 24 23 24 27 27 26 25 24 24 24 26 28 29 29 29 30 31 31 31 31 32 32 32 33 35 36 36 36 37 38 39 39 40 39 39 38 37 36 36 36 36 37 38 38 37 37 36 36 35 35 34 34 34 35 36 36 36 36 36 36 36 34 33 31 29 27 26 25 24 23
7 6 6 8 10 12 15 17 18 20 20 21 23 25 25 25 24 25 26 26 26 25 24 25 27 29 30 30 31 31 33 33 33 33 33 33 34 35 37 38 38 38 38 39 40 39 39 40 41 41 40 40 39 39 38 37 37 38 38 38 37 36 35 36 36 36 36 36 36 35 35 35 35 35 34 34 34 34 33 30 28 28 27 26 23
8 7 6 9 12 13 16 17 19 21 21 22 24 25 25 24 25 25 26 26 25 25 26 27 30 32 32 32 34 35 36 36 36 36 36 36 38 38 39 39 39 39 40 40 40 40 40 40 40 41 41 41 41 39 38 37 36 37 37 37 37 37 35 34 35 35 34 34 33 33 32 32 32 32 31 32 32 32 31 29 28 29 29 29 27
9 7 6 9 12 14 16 18 20 21 21 22 24 24 24 24 25 26 26 26 26 26 27 29 32 34 34 35 37 37 38 38 38 38 38 38 39 39 39 39 40 41 41 41 40 39 40 40 40 41 42 41 41 39 37 37 37 36 36 36 37 37 36 34 32 31 31 30 30 30 30 30 31 30 29 30 30 29 28 27 26 27 27 29 31
9 8 6 9 12 14 16 19 21 21 21 22 22 22 23 25 26 26 26 26 27 27 29 31 33 34 35 36 37 37 39 40 39 39 39 39 39 39 38 38 40 41 40 40 40 40 40 41 41 42 42 41 41 40 37 36 37 36 36 36 36 35 35 34 32 30 30 30 29 28 27 27 30 30 29 28 28 27 26 25 25 25 26 26 29
8 7 8 10 13 15 17 20 20 20 21 22 21 22 25 26 27 26 26 27 28 28 29 31 33 35 36 37 38 38 39 40 40 40 40 40 39 39 39 38 39 39 40 40 41 41 41 41 41 42 42 41 40 38 36 35 36 36 36 36 34 32 32 31 28 28 29 30 30 27 25 25 28 29 27 26 27 27 26 26 25 24 25 26 26
7 7 9 12 14 16 20 21 20 21 22 22 22 23 26 27 26 26 26 26 27 29 30 32 35 36 37 38 39 40 40 41 41 41 41 40 40 40 40 40 40 39 39 40 41 41 42 43 42 41 40 39 37 36 35 36 36 35 35 35 32 29 28 26 24 24 26 29 29 27 26 26 26 27 27 26 26 26 26 25 24 25 26 27 29
9 11 12 14 15 18 21 21 20 21 21 20 22 24 25 26 25 25 26 27 28 29 31 34 36 38 39 39 40 41 42 42 42 41 41 41 41 41 41 41 41 40 40 40 40 42 42 42 41 39 37 37 37 36 36 36 35 34 34 33 29 26 24 23 22 22 23 25 27 26 26 26 25 26 27 26 24 25 24 23 22 23 25 26 29
13 15 15 14 16 19 22 21 20 21 20 20 23 25 25 26 26 26 27 29 29 31 33 36 37 38 40 40 40 40 41 42 41 41 41 41 41 41 42 41 41 41 41 41 42 42 41 40 39 39 38 37 38 38 37 36 34 33 33 30 26 23 22 21 21 20 19 21 23 24 25 25 25 25 26 24 22 23 23 23 23 23 23 25 26
15 16 15 14 17 21 22 21 20 20 21 22 25 26 26 27 27 28 30 30 30 32 35 37 38 39 39 40 39 39 39 40 40 39 40 41 41 41 41 40 40 41 42 42 41 39 40 40 40 40 40 39 39 39 37 36 34 32 30 28 24 22 20 19 19 19 18 19 20 21 22 23 24 25 24 23 22 21 21 23 24 24 23 23 24
16 16 15 14 18 21 21 21 21 22 23 25 26 26 26 26 27 28 29 30 31 34 36 37 38 39 39 38 38 38 38 38 38 39 39 40 41 41 41 40 39 40 41 41 39 38 41 42 42 41 41 39 39 39 38 35 33 31 29 26 23 20 18 16 16 17 17 17 18 19 19 21 23 24 23 22 21 21 21 21 22 23 22 22 23
15 15 14 15 19 21 22 23 23 23 25 26 25 25 24 25 26 27 27 29 32 35 36 37 38 39 39 38 38 38 37 37 37 38 39 39 39 40 40 40 40 40 40 40 41 40 41 43 43 43 42 40 38 37 37 34 31 28 27 24 21 19 16 14 14 14 15 15 17 18 18 19 20 21 21 21 21 22 23 22 21 21 21 20 21
14 15 15 16 20 21 22 23 23 23 25 25 24 24 24 25 25 26 27 29 33 35 36 37 38 38 39 39 38 37 37 36 36 36 37 38 39 39 39 39 40 40 40 41 42 41 40 43 45 44 42 40 37 35 33 31 28 26 25 23 20 18 16 15 14 13 13 14 16 17 18 18 18 18 19 21 21 22 23 23 23 24 23 21 20
15 16 16 18 20 21 22 23 23 24 24 24 23 24 24 25 25 26 28 31 33 35 36 37 38 39 39 39 39 38 37 36 36 35 36 38 39 38 38 39 38 39 40 40 40 39 39 41 43 43 41 39 35 32 29 26 24 23 23 21 19 18 17 16 16 15 15 16 16 17 17 16 16 18 19 20 21 22 22 23 24 25 25 23 21
16 17 17 18 19 20 22 23 23 24 24 23 23 24 24 25 25 27 30 32 33 35 36 37 38 39 39 39 38 38 37 36 35 34 35 38 38 38 38 38 37 38 39 38 38 38 37 38 40 41 41 38 34 30 27 24 22 21 21 19 18 17 17 17 17 16 16 17 17 18 17 17 17 18 19 20 20 20 20 21 22 22 24 24 21
16 17 17 17 18 19 21 23 23 24 24 24 24 24 25 25 26 29 31 32 34 35 36 37 38 38 39 38 37 37 37 35 34 35 35 37 37 37 38 37 37 37 34 33 34 34 34 34 34 36 38 38 36 33 30 27 24 22 20 19 17 15 15 16 17 16 16 16 16 16 17 17 18 18 18 18 19 19 19 19 19 19 21 22 21
16 17 17 17 18 19 21 23 24 24 24 24 24 24 25 27 28 30 30 31 34 36 37 38 38 38 38 38 37 37 36 34 34 34 34 35 37 37 36 36 37 35 31 29 30 32 33 32 29 29 33 37 36 35 34 32 29 25 22 20 17 14 12 13 14 14 13 13 14 15 16 18 18 17 16 16 17 18 18 18 18 18 19 19 19
17 18 18 18 18 19 21 23 25 25 24 24 24 24 25 27 29 29 29 30 33 36 37 37 37 37 37 36 36 36 35 35 35 35 34 33 34 35 35 34 34 32 30 28 29 31 31 29 26 27 32 35 34 35 36 36 33 28 24 22 19 16 13 11 11 12 10 10 12 13 14 15 15 13 12 13 13 14 14 15 16 17 17 17 17
17 18 18 18 18 19 21 23 24 25 24 24 24 24 25 26 28 29 29 31 33 34 36 37 37 36 35 34 34 34 34 35 36 36 35 34 34 34 33 32 31 31 29 28 29 30 28 24 24 27 31 32 33 36 36 35 34 30 23 19 18 17 14 10 8 7 6 7 9 11 11 11 11 11 10 10 11 11 12 14 15 16 16 15 16
18 18 18 18 18 19 21 22 24 25 24 24 24 25 26 27 28 29 30 31 33 33 34 35 35 33 32 32 32 32 33 35 37 36 35 35 34 34 33 31 30 28 27 28 29 28 27 26 25 26 29 29 30 34 38 36 35 35 29 19 14 13 11 6 4 4 2 2 4 8 10 11 11 11 11 12 12 12 13 15 16 17 16 16 16
18 18 18 18 19 20 21 22 24 24 24 24 25 26 27 27 28 30 30 31 32 33 33 34 33 32 31 31 31 32 33 34 36 36 35 33 31 30 30 32 30 28 28 31 29 26 28 30 27 25 26 25 25 31 38 39 38 38 36 27 16 10 7 2 3 3 3 3 3 4 6 5 5 4 4 2 2 3 5 7 10 12 13 14 15
18 18 19 19 20 21 22 23 25 25 25 25 26 27 28 28 28 29 29 30 31 32 32 32 32 32 31 31 31 32 33 33 34 35 36 35 33 28 25 26 28 29 31 32 30 29 32 32 29 27 27 26 27 32 38 39 38 37 37 33 26 18 11 6 2 0 3 6 8 10 13 13 12 12 13 12 10 11 11 11 9 7 7 8 8
19 18 19 20 21 22 23 24 26 26 26 27 28 28 28 28 28 28 28 29 30 30 30 31 32 32 31 30 29 31 33 33 33 34 34 35 37 35 29 24 23 28 32 32 31 33 35 34 31 31 31 31 33 36 38 38 36 34 34 34 32 28 23 17 11 11 17 19 16 15 16 17 17 18 19 18 16 15 14 15 15 16 15 13 11
Wind_Direction
90 94 99 104 105 104 103 99 90 77 67 65 64 62 58 52 44 38 32 27 23 17 13 9 3 356 348 341 336 331 327 324 322 320 319 321 323 321 318 317 314 311 309 305 302 301 301 301 301 303 304 301 300 301 302 302 300 296 294 292 291 291 293 297 300 299 300 302 303 303 303 302 300 298 294 292 290 289 287 286 285 284 282 277 271
79 79 85 96 99 99 97 89 79 70 66 64 62 59 55 47 40 34 30 28 24 17 12 7 1 356 350 344 338 332 325 319 317 315 313 312 313 314 315 313 308 306 306 302 298 296 295 295 295 297 298 296 296 298 300 300 299 296 292 289 288 286 287 294 298 295 291 292 301 309 309 306 306 304 300 298 295 294 292 290 287 285 284 279 270
65 68 80 90 93 93 88 80 75 69 64 61 58 54 48 41 34 30 27 24 21 15 9 3 355 349 344 340 337 334 329 322 317 313 311 309 310 311 312 310 307 303 302 300 296 293 291 290 290 291 292 291 290 292 294 296 296 296 292 286 285 284 282 287 291 286 274 280 295 297 303 317 317 310 306 305 308 309 302 293 287 285 286 283 273
71 73 82 89 89 88 80 73 73 67 60 56 53 47 40 35 29 25 24 19 15 10 5 0 354 348 344 339 336 334 330 327 324 320 318 316 315 315 314 312 310 304 300 298 295 294 291 288 287 287 287 288 286 285 287 290 292 293 290 284 279 276 275 280 285 282 272 270 277 274 297 318 295 307 320 312 308 308 304 295 290 290 292 287 273
88 86 84 86 85 80 72 66 65 63 57 51 46 40 34 30 24 21 20 15 10 7 3 359 356 352 348 344 342 339 335 333 330 326 324 322 319 319 318 316 313 308 302 298 295 294 293 292 288 284 284 284 282 282 283 286 288 288 287 282 276 270 269 274 277 277 274 263 248 247 287 293 264 316 323 310 304 299 296 297 295 293 292 288 276
87 89 85 82 78 71 65 61 60 59 53 45 39 34 30 25 21 18 16 11 7 4 2 359 356 353 349 346 344 340 336 335 332 327 324 322 321 321 321 320 317 313 308 302 298 294 293 296 293 287 284 282 281 281 280 281 283 285 285 281 276 272 267 267 269 271 272 266 254 248 251 250 261 301 315 302 297 289 287 290 290 287 287 282 273
79 78 78 75 70 65 61 58 58 54 45 38 33 29 25 21 17 14 12 8 5 2 359 357 354 351 348 345 342 338 334 331 331 328 324 323 323 323 324 324 323 320 316 311 306 300 297 301 300 293 286 282 279 277 275 278 280 281 282 279 276 274 265 257 260 266 268 264 258 253 251 251 254 262 263 275 297 289 281 283 285 285 284 279 272
84 74 70 69 65 62 59 59 56 47 39 33 29 25 21 17 12 10 8 5 2 358 356 356 355 351 349 347 345 342 335 330 329 327 325 325 324 324 325 325 326 325 321 319 317 312 308 307 306 300 292 285 280 275 273 275 277 277 278 276 274 271 263 256 257 260 258 259 260 256 253 252 251 250 249 253 273 286 283 283 283 282 278 275 273
80 81 73 67 61 57 60 60 51 41 35 30 25 21 16 12 8 5 4 0 357 355 354 357 358 355 353 350 344 339 335 332 331 331 331 331 330 329 329 328 328 327 324 321 320 318 315 313 311 305 298 292 284 278 275 274 273 274 273 272 271 269 264 260 257 256 253 254 257 255 253 252 250 249 248 245 245 263 277 283 286 289 283 274 273
67 81 80 68 57 55 59 55 44 36 30 25 21 16 11 8 5 2 360 357 355 355 354 356 357 353 349 345 341 339 340 341 340 339 337 336 333 332 332 330 329 327 324 322 321 321 319 316 314 309 304 297 288 281 278 275 272 271 271 271 269 266 264 261 257 256 254 253 253 250 250 248 245 247 240 235 236 247 260 270 276 283 284 280 277
50 69 75 62 51 52 53 46 37 30 25 21 16 11 8 5 2 358 356 356 356 354 353 352 351 347 344 344 345 346 346 344 340 336 333 332 330 328 327 324 323 323 323 322 322 322 321 317 314 311 307 301 292 286 283 279 275 272 270 269 266 264 263 261 258 257 255 253 252 248 246 245 242 243 236 229 228 235 253 268 265 260 269 277 278
46 55 60 51 46 47 46 39 32 27 22 18 12 7 5 2 358 355 355 356 354 350 349 349 347 345 347 350 349 345 341 338 335 332 331 331 329 327 326 323 320 319 319 320 321 325 325 323 320 316 311 305 298 293 289 285 280 274 269 266 265 263 260 258 256 255 253 250 250 248 248 247 245 247 247 240 237 242 250 260 264 262 264 270 274
52 58 54 46 47 49 43 35 29 26 21 14 9 6 3 359 356 355 355 353 348 346 347 347 348 351 354 351 343 338 336 336 335 333 333 332 329 328 327 325 323 320 319 320 324 329 330 328 326 322 317 311 304 299 294 289 284 277 270 266 264 261 258 257 255 254 251 249 250 249 247 247 246 247 249 246 246 248 250 256 264 260 254 268 273
58 58 51 42 51 54 44 35 29 24 18 11 7 5 360 355 354 355 351 347 345 346 347 349 353 356 349 341 338 338 339 339 338 335 334 333 331 328 326 326 325 324 325 328 331 332 330 328 325 322 319 315 311 307 302 295 288 280 273 268 264 262 258 254 252 251 250 249 249 248 247 247 247 247 245 244 246 246 245 250 262 262 253 262 270
60 60 45 38 54 57 42 34 29 21 14 9 6 1 355 353 354 352 346 344 346 348 350 353 355 347 340 338 341 344 344 342 340 338 338 337 336 332 329 329 329 327 329 330 329 328 327 325 323 321 318 316 314 311 307 302 295 285 277 270 266 263 257 252 250 248 250 250 248 247 248 248 248 247 245 243 243 242 243 246 249 260 261 259 266
60 62 36 36 56 54 40 33 26 17 10 7 3 356 351 352 352 348 345 346 348 350 353 353 346 340 339 343 347 348 347 346 345 342 339 337 336 333 331 332 331 329 327 325 322 320 319 317 316 315 313 312 312 311 308 305 300 291 281 273 268 264 258 253 250 247 249 251 250 249 249 249 250 248 246 245 243 242 243 245 243 241 254 265 265
62 55 27 41 55 47 36 30 21 12 8 4 358 352 351 354 351 348 348 348 350 353 351 345 341 340 343 346 349 350 351 349 343 337 334 332 331 331 329 327 327 325 322 319 317 315 313 313 311 308 306 306 305 304 304 303 300 294 285 277 270 265 260 255 250 247 248 249 249 250 249 249 251 249 247 247 245 244 243 243 241 237 237 249 263
56 39 31 48 51 40 32 25 14 8 5 359 355 352 353 354 351 350 348 347 349 350 345 341 341 341 342 345 350 352 349 343 337 332 331 330 330 330 327 324 326 327 323 319 316 314 312 311 309 306 304 302 299 296 297 298 297 292 286 280 275 269 261 256 253 251 250 250 250 251 250 250 251 250 250 249 247 245 244 242 242 239 236 236 245
44 19 35 51 47 36 27 16 7 5 2 357 354 353 353 352 351 350 348 348 347 342 340 341 342 342 343 346 349 347 342 339 336 332 330 330 329 329 327 327 329 330 327 322 318 316 315 314 313 310 306 304 300 296 293 291 291 290 287 282 277 271 263 258 257 255 254 253 253 253 251 250 251 250 250 250 247 246 244 242 241 239 236 235 237
35 9 41 53 40 27 20 10 4 3 360 355 353 353 352 350 350 350 349 348 343 340 341 341 341 342 344 345 342 338 338 339 338 335 331 329 329 327 325 326 327 325 323 321 318 318 318 317 315 313 310 307 304 301 295 290 287 286 286 285 281 273 265 261 259 257 256 254 253 252 251 250 250 249 248 248 246 244 243 240 238 237 235 234 236
4 33 49 46 28 17 12 5 1 359 356 354 352 351 349 348 350 350 348 346 342 341 341 339 340 343 342 340 337 336 338 339 338 334 330 327 327 324 323 323 322 321 320 319 317 317 317 316 315 312 310 309 306 304 301 296 290 286 283 282 281 277 269 264 261 259 255 253 251 250 251 251 250 248 247 246 244 242 240 237 235 234 233 232 232
358 62 47 29 18 10 5 1 359 357 354 352 351 348 346 346 348 347 346 345 342 339 337 336 339 341 337 335 335 336 338 337 332 332 329 326 324 322 322 322 321 319 318 316 316 315 315 314 313 311 308 307 306 305 302 299 294 291 286 281 277 275 271 267 263 260 257 254 252 251 251 251 249 247 247 245 243 240 236 234 232 230 231 231 230
37 61 35 19 13 5 1 358 357 354 351 349 347 343 342 344 344 343 342 343 341 338 336 336 337 334 331 334 335 337 338 333 329 329 327 324 322 321 323 322 319 318 316 314 313 313 312 311 310 308 306 306 306 304 302 298 294 292 290 285 278 271 267 267 265 264 262 259 256 254 253 252 249 246 245 243 241 238 233 231 230 228 229 232 230
48 46 20 10 8 4 1 357 353 350 346 344 343 340 339 341 342 342 342 342 341 338 335 336 334 329 330 334 336 337 337 334 330 327 325 324 322 321 321 319 316 315 314 313 312 311 310 308 307 305 304 304 304 303 302 299 295 291 288 286 282 271 263 262 263 264 265 263 260 258 256 254 250 246 244 242 238 235 231 229 229 228 228 232 233
40 25 9 5 5 360 356 353 348 343 341 341 342 340 340 341 341 344 343 342 341 337 335 335 331 327 331 334 335 335 333 332 329 325 323 323 321 320 319 316 315 314 313 313 311 310 309 307 305 304 303 302 302 302 301 298 294 292 287 284 282 276 268 264 264 264 264 264 263 261 259 255 250 246 242 239 235 231 230 228 228 228 228 231 233
23 8 0 360 358 352 349 349 343 339 340 343 343 342 343 343 343 344 342 340 339 335 334 334 329 328 332 334 333 331 329 327 325 324 323 321 319 319 317 315 314 313 312 312 310 309 309 306 304 303 301 300 300 300 300 298 295 293 291 285 279 276 273 271 269 268 266 265 263 261 260 256 250 245 241 237 233 229 227 227 227 228 228 230 231
1 348 352 355 354 349 346 344 340 340 344 345 346 346 345 343 342 341 339 338 337 333 332 332 328 329 332 331 330 329 326 324 323 322 321 320 318 318 316 315 314 312 311 311 310 308 307 305 303 302 300 299 299 299 298 297 296 295 294 290 285 280 278 275 271 267 264 262 261 260 258 255 250 245 241 236 231 227 226 226 226 227 227 227 228
339 339 1 360 351 345 344 342 341 343 345 347 348 347 345 342 339 338 337 336 335 332 330 330 328 328 329 328 327 327 325 323 322 321 320 320 318 316 315 314 313 312 311 310 309 309 307 305 303 301 299 298 297 297 296 294 293 292 291 291 289 285 281 278 273 267 262 260 261 261 259 255 249 245 240 234 230 227 225 225 226 226 225 224 224
335 350 12 360 344 343 344 343 343 344 344 347 348 347 345 342 338 337 335 334 333 331 329 328 327 327 328 327 325 325 325 324 322 321 321 320 318 316 315 315 314 313 312 312 312 311 309 307 305 303 301 300 297 295 294 293 290 289 287 285 282 277 274 271 269 267 265 263 262 261 258 253 248 242 238 234 231 228 226 225 224 223 222 221 222
339 360 14 352 341 343 342 341 342 343 344 348 349 347 344 340 338 336 333 332 332 329 327 328 327 327 327 326 325 324 324 324 323 322 321 320 319 317 317 316 315 315 315 315 314 313 310 308 307 306 304 302 300 297 295 292 289 288 285 281 277 273 268 264 262 262 262 260 259 256 252 249 245 240 236 234 232 230 229 228 226 225 223 221 221
344 357 1 344 339 340 340 340 342 343 347 350 347 344 341 338 336 334 331 330 330 328 327 327 326 327 326 326 326 326 325 325 324 323 322 321 320 319 319 318 317 317 317 317 315 313 312 310 308 306 304 302 301 299 296 294 292 289 286 282 280 278 273 267 261 258 256 254 253 250 246 244 241 237 234 233 234 234 233 232 229 227 226 224 224
345 346 347 340 338 339 339 341 343 344 348 347 343 340 338 335 333 331 329 329 328 327 327 326 326 327 327 327 327 327 326 325 325 324 324 323 321 320 320 318 318 318 318 317 315 313 312 311 309 306 304 302 301 300 298 296 293 290 287 284 281 280 279 275 269 261 255 252 249 244 240 238 237 234 232 231 233 236 236 236 236 235 231 228 225
342 337 340 337 336 338 339 340 342 344 343 341 338 336 334 332 331 329 328 328 327 327 326 326 327 327 327 328 328 327 326 325 325 325 324 324 322 320 320 319 318 319 318 316 314 313 311 310 309 307 304 302 302 301 299 296 293 291 289 287 285 283 282 279 273 264 256 250 244 239 233 232 232 232 230 228 229 231 234 236 240 242 241 238 232
334 331 336 335 335 338 339 340 341 340 338 337 335 333 332 330 329 328 328 327 326 326 326 327 327 328 329 329 329 327 326 325 326 326 325 324 323 321 320 320 319 318 317 315 314 313 311 310 309 306 304 303 302 301 299 296 295 294 292 290 290 290 289 286 279 267 255 245 238 232 227 226 228 227 226 225 226 228 230 234 237 241 245 247 246
333 334 337 337 339 341 340 340 340 337 336 335 333 332 331 329 329 328 327 327 327 326 327 328 329 330 330 331 330 328 327 326 326 326 326 325 324 322 321 321 320 318 316 315 314 312 311 310 309 307 305 302 301 301 301 299 298 296 294 294 296 298 298 295 287 270 253 242 235 229 225 224 224 225 225 224 225 227 228 231 234 238 243 246 249
340 340 338 339 342 342 339 336 334 333 334 334 332 331 330 328 328 328 327 328 329 328 330 331 330 331 331 331 331 329 327 326 327 326 326 325 324 322 322 322 320 318 317 315 314 313 311 309 308 307 304 301 300 302 301 299 298 297 297 298 299 302 305 302 289 272 253 241 233 226 223 222 222 225 227 225 224 224 224 227 230 234 240 243 247
345 340 334 334 338 339 336 333 331 332 333 333 333 332 331 329 330 331 331 331 332 331 332 332 331 331 331 330 330 328 326 326 326 326 325 324 323 322 322 322 320 318 317 316 315 314 312 309 307 306 303 301 300 301 300 300 299 298 297 298 298 300 306 305 293 276 257 243 233 226 223 222 221 224 227 226 226 223 220 222 226 229 234 238 243
344 336 330 332 336 335 333 331 332 333 335 337 335 334 333 332 332 333 333 332 332 332 332 331 329 329 329 329 329 327 326 325 325 324 323 322 322 322 321 322 320 317 316 316 315 314 312 310 307 306 304 301 299 299 299 299 300 298 295 295 296 297 300 303 296 281 261 246 238 231 226 225 225 227 228 228 229 227 220 218 221 224 228 232 238
338 332 328 331 333 333 333 335 337 336 336 338 337 335 334 331 331 332 331 331 331 330 329 328 327 327 327 328 328 327 326 325 324 323 323 322 322 322 321 321 320 318 316 316 315 314 311 310 309 308 306 302 298 298 299 297 298 298 295 293 293 292 293 296 292 277 260 248 242 236 229 228 231 232 231 230 231 228 223 220 219 219 223 229 236
333 331 328 329 332 334 336 338 338 336 335 336 336 334 332 329 329 330 329 328 328 327 327 326 326 327 327 328 329 328 327 326 324 324 324 323 322 322 322 321 321 319 318 317 316 315 313 312 313 312 310 306 302 299 298 297 296 297 296 293 291 289 287 290 288 273 256 246 243 240 235 232 232 231 229 230 231 229 227 225 221 218 222 230 237
331 332 331 333 335 337 336 335 334 334 334 335 335 332 330 329 329 327 326 326 326 326 326 326 326 327 328 329 330 329 327 327 326 325 324 324 324 323 322 322 322 321 319 318 318 318 316 315 317 317 314 312 310 305 302 299 298 297 296 293 289 285 281 279 279 269 254 244 241 240 240 239 237 236 233 232 232 232 230 227 224 223 228 232 232
334 336 338 338 336 335 333 331 332 332 332 334 334 331 329 328 327 325 325 326 326 327 327 327 327 328 330 330 330 330 329 328 328 328 326 325 325 325 324 324 323 322 321 320 319 320 319 318 320 320 319 318 319 316 310 304 299 298 298 294 286 280 275 269 263 255 246 242 240 241 243 243 239 240 242 240 239 239 237 234 230 227 229 230 227
335 337 339 338 333 331 329 327 329 331 332 334 334 330 329 327 324 324 326 327 327 328 328 328 329 329 330 330 330 330 331 331 331 331 328 326 326 327 327 326 326 324 322 321 321 322 321 320 320 323 325 326 328 327 321 312 304 301 300 297 289 280 272 265 260 252 243 239 238 240 243 244 240 240 243 243 243 245 245 243 241 235 229 227 222
333 333 335 335 330 327 326 325 328 332 333 335 334 331 327 324 323 326 329 328 328 329 329 329 329 329 329 330 331 331 332 332 333 332 330 328 328 328 328 328 328 326 322 319 320 323 322 319 319 322 328 333 336 336 331 324 315 308 303 300 296 289 280 270 264 259 252 246 244 244 246 245 241 241 243 243 242 244 244 245 246 244 239 229 217
329 330 332 332 328 326 326 326 329 333 334 334 335 331 325 323 326 329 329 329 329 330 330 330 329 329 330 331 331 332 333 333 333 333 332 330 329 329 328 328 328 327 323 320 321 323 321 318 318 323 330 334 338 339 338 333 326 315 306 302 298 291 284 280 273 267 259 251 248 249 249 245 242 244 248 248 246 246 246 243 240 242 245 237 217
329 329 329 329 328 327 328 327 328 332 333 332 333 331 325 324 328 330 330 330 331 331 330 329 329 329 330 331 331 331 333 333 333 334 334 332 331 329 327 327 327 326 324 322 322 323 320 319 323 330 333 335 339 343 342 340 336 326 312 304 300 288 278 278 278 273 265 252 248 254 259 256 254 255 253 250 247 245 245 243 238 238 242 239 220
327 326 326 328 329 328 328 327 325 328 331 331 331 331 329 328 330 332 332 332 332 331 330 329 329 329 330 331 331 330 331 332 333 335 335 334 334 332 328 327 327 325 324 325 325 323 320 322 330 335 334 336 345 348 344 344 349 350 339 322 310 300 286 273 265 266 270 261 256 266 275 274 270 270 266 260 251 240 238 243 246 246 245 238 225
325 326 326 327 327 326 326 324 323 326 329 330 330 331 332 333 334 335 335 334 333 332 329 327 328 329 329 331 331 330 330 331 332 334 335 335 335 333 330 327 326 325 324 324 323 324 325 329 335 337 336 340 347 349 347 350 359 6 6 357 336 321 313 289 239 228 264 297 277 278 283 281 279 280 279 274 263 247 240 242 249 254 251 240 233
325 326 326 324 323 324 324 323 323 327 329 329 330 333 336 337 337 337 337 335 332 331 329 328 329 330 330 331 331 330 331 331 331 332 333 334 334 332 328 326 326 328 327 323 324 332 337 340 343 344 344 346 346 347 350 357 4 9 13 17 19 9 4 55 152 204 288 337 351 336 332 336 341 350 355 336 245 203 200 210 226 236 234 227 227
325 325 324 322 323 324 324 324 325 329 330 331 332 336 339 340 339 338 337 335 333 331 329 329 330 330 331 332 331 330 331 331 331 332 332 332 333 334 330 327 327 330 330 329 335 345 349 351 352 352 353 355 354 352 356 3 8 9 11 19 29 34 37 52 85 353 20 39 43 40 40 44 48 48 47 52 66 79 86 91 101 121 146 168 188
324 323 322 322 324 325 325 325 328 331 332 332 333 336 339 339 339 339 337 335 334 332 328 328 329 329 330 331 329 329 330 331 332 332 332 332 333 334 335 334 333 334 335 338 344 350 354 358 358 355 356 360 1 0 2 6 9 10 9 15 25 33 39 45 57 67 63 56 49 43 42 44 45 45 44 44 49 55 61 67 73 79 86 91 99
Height
837 838 839 841 842 844 845 846 846 847 848 848 849 849 850 851 850 850 849 848 847 846 844 843 842 840 839 838 836 835 834 833 832 831 829 828 827 826 825 824 823 822 821 819 818 817 816 815 814 813 812 811 810 809 808 807 807 806 805 805 804 803 802 801 802 801 799 796 792 790 789 788 787 786 784 783 782 781 780 779 778 777 777 777 778
839 840 842 843 844 845 846 847 848 848 850 850 851 851 851 851 850 850 849 848 847 845 844 843 842 841 839 837 836 834 833 831 830 828 827 826 825 824 823 822 821 819 819 817 816 815 814 813 812 811 810 809 808 807 806 805 804 804 803 802 802 801 800 799 800 800 799 796 794 790 787 784 783 783 782 781 780 779 779 777 776 776 774 774 775
842 843 844 845 846 848 848 849 850 850 851 852 852 852 851 851 850 850 849 848 847 845 844 843 842 841 840 838 835 833 831 829 828 826 825 824 823 822 821 820 818 817 816 815 813 812 811 810 809 808 807 806 805 804 804 803 802 801 801 800 799 799 797 797 798 798 798 797 797 794 789 785 782 780 780 779 778 778 777 776 775 775 774 773 774
845 846 847 848 848 849 850 850 852 852 852 853 852 852 852 851 851 850 849 848 847 845 844 843 842 841 839 837 835 832 829 827 825 824 823 822 820 819 818 817 816 814 813 812 811 809 808 807 806 805 805 804 802 801 801 800 800 799 798 798 797 797 796 795 795 796 796 797 797 794 792 790 785 781 778 777 777 777 775 775 775 774 774 773 773
847 849 849 850 850 851 852 852 852 853 853 853 853 853 853 852 851 850 849 847 846 845 844 842 840 838 836 833 831 829 827 825 823 821 821 820 818 817 815 814 813 811 810 809 808 806 805 804 803 802 801 800 799 798 797 797 797 796 796 795 795 795 794 793 793 793 794 794 795 794 793 792 787 783 780 775 774 775 774 774 775 774 774 773 772
849 851 851 852 853 853 853 853 853 854 854 855 854 854 853 852 851 850 848 847 846 845 843 841 840 837 835 832 829 827 825 824 823 821 820 818 816 814 813 811 810 808 807 806 805 803 802 801 800 798 797 797 796 795 794 794 794 793 793 793 792 792 792 791 790 790 791 791 791 791 791 789 786 786 785 778 772 772 773 773 773 773 773 772 772
852 853 854 854 854 854 854 855 855 855 856 856 855 854 853 852 851 849 848 847 845 844 843 841 839 837 835 833 831 829 826 824 823 822 819 817 814 812 810 808 807 805 803 802 802 800 800 798 797 796 794 793 793 791 790 790 790 790 790 789 789 789 789 788 787 787 788 787 787 787 786 786 786 786 786 783 775 770 769 771 771 771 772 771 771
855 855 856 856 855 855 856 857 857 857 857 856 854 853 852 851 850 849 848 847 845 844 843 841 839 836 834 833 831 830 828 825 823 821 818 815 813 810 808 806 804 803 801 800 799 798 797 795 794 793 791 790 789 788 786 786 786 786 786 786 785 785 785 785 784 784 784 783 783 783 782 782 783 783 783 783 780 773 767 768 769 769 769 768 768
856 857 857 857 857 857 858 859 858 858 857 855 855 854 853 852 850 849 848 847 845 844 842 840 838 836 834 832 830 829 827 824 822 819 816 814 811 809 806 804 802 801 799 798 797 796 794 792 791 789 788 787 786 784 783 783 782 782 782 782 781 780 781 781 780 780 780 779 779 780 779 779 779 779 780 780 780 775 768 766 767 766 765 764 765
858 858 859 859 859 859 859 859 858 857 857 855 855 854 853 852 851 850 849 847 845 843 841 839 837 835 834 832 830 828 825 823 820 818 815 813 810 808 805 803 801 799 798 796 795 793 791 789 788 786 785 784 782 781 780 779 779 778 777 777 777 776 776 777 776 775 776 776 776 776 776 776 776 776 776 776 776 774 769 766 767 766 763 760 761
860 860 860 860 860 860 859 858 858 857 857 856 855 855 854 853 852 851 849 847 844 843 841 839 837 836 834 832 830 828 825 822 819 816 814 812 809 807 805 802 800 798 797 795 793 791 789 787 785 783 782 781 779 778 777 776 775 774 773 772 772 771 771 772 771 771 772 771 772 772 771 771 772 771 771 772 771 770 768 765 764 766 763 757 757
861 860 861 860 860 860 859 859 859 859 858 858 857 857 856 854 852 850 848 846 845 843 842 839 838 836 834 832 830 827 825 822 819 815 813 810 808 805 803 801 799 797 795 793 791 789 787 785 783 782 780 779 777 776 774 773 772 770 769 768 767 766 766 767 766 766 766 766 766 767 766 766 766 766 766 767 767 765 765 763 760 763 762 756 755
861 861 861 861 861 861 861 861 861 861 860 860 859 857 856 854 852 850 848 847 846 844 842 840 838 836 834 832 829 826 824 821 818 815 812 810 807 804 802 799 796 794 793 791 790 788 785 783 782 780 779 777 775 773 771 770 769 767 765 764 762 761 761 761 760 759 760 761 760 761 762 761 761 762 762 763 763 762 762 760 758 760 760 754 753
861 862 861 862 863 863 863 864 863 863 862 861 860 858 856 855 853 851 850 849 847 845 843 840 838 836 834 831 828 825 822 820 817 814 812 810 807 804 802 799 796 794 792 790 788 786 784 782 780 778 777 775 773 771 769 767 766 764 762 760 758 757 757 756 754 754 755 755 756 756 757 756 756 757 758 759 759 759 759 757 756 757 756 753 751
861 862 863 863 864 865 865 865 864 864 863 861 860 859 857 856 854 853 851 849 847 844 841 839 837 835 832 829 826 823 820 818 816 814 812 809 807 804 801 799 797 794 792 789 787 785 783 781 779 777 775 773 771 768 766 764 762 761 758 756 754 753 753 752 750 750 750 750 751 752 751 751 752 753 754 754 754 755 754 754 755 754 753 751 749
863 863 864 865 865 866 866 865 865 864 863 862 861 860 859 857 856 854 851 848 845 843 840 838 836 833 830 827 824 822 820 818 816 814 811 809 806 804 801 799 796 794 791 787 785 783 781 779 776 775 773 771 768 766 764 761 759 757 754 752 750 749 749 747 745 745 744 745 746 747 747 746 747 748 749 749 749 750 750 751 752 752 751 749 747
864 865 865 866 866 866 866 866 866 865 865 865 863 862 860 857 855 852 849 846 843 842 839 837 834 831 828 826 824 822 820 817 815 813 810 808 805 803 800 797 795 792 789 785 783 781 778 776 773 771 769 767 765 763 761 758 756 753 751 748 746 745 745 743 741 740 739 740 741 742 742 741 742 743 744 744 745 745 746 746 747 748 749 748 745
865 866 866 866 867 867 867 868 868 868 867 865 863 861 859 856 854 851 848 845 843 841 839 835 832 830 827 825 823 821 819 817 814 811 808 806 803 801 798 795 792 789 786 783 780 777 775 773 770 767 765 763 761 759 757 755 752 749 746 744 742 741 740 738 737 737 735 736 736 736 737 736 737 738 739 739 740 741 741 742 742 743 744 744 742
866 866 866 867 868 869 870 869 869 868 866 864 862 859 857 855 853 851 848 846 843 840 838 834 832 829 826 824 822 820 818 815 812 809 807 804 801 798 796 792 789 786 784 781 777 774 771 769 767 764 761 759 757 754 753 751 748 745 742 740 738 737 736 733 733 733 732 732 731 731 731 732 732 733 734 734 735 736 736 737 738 738 739 739 739
867 867 868 869 870 870 870 869 868 866 865 863 861 858 856 855 852 850 848 845 843 840 837 834 831 828 826 824 821 819 816 813 810 807 805 802 799 797 794 790 787 784 782 779 776 773 769 766 764 761 758 755 753 751 749 747 745 741 739 737 735 734 732 729 728 728 728 727 726 726 726 727 728 729 729 729 730 730 731 732 733 733 734 734 734
867 869 870 871 871 870 869 868 867 865 864 862 860 858 856 854 852 850 847 845 842 839 836 833 830 827 825 822 820 817 814 811 808 806 803 801 798 796 792 788 785 782 780 777 774 771 768 764 761 758 756 753 750 748 746 744 741 737 735 733 731 730 728 725 724 723 723 723 722 721 721 721 723 724 723 724 724 725 726 727 727 728 728 729 730
868 870 871 870 870 869 868 867 866 864 863 861 860 858 856 854 852 850 847 845 842 838 835 832 829 827 824 821 819 816 814 810 807 805 802 799 797 793 790 787 783 780 777 775 772 768 766 762 759 756 753 751 748 745 743 741 738 734 731 729 727 726 723 721 720 718 718 718 717 717 716 717 719 719 718 719 719 720 721 721 722 723 723 724 726
870 871 871 870 870 869 867 866 865 863 862 861 859 857 855 853 851 849 847 844 841 837 834 831 828 826 823 820 818 815 812 809 806 803 800 797 794 791 788 785 781 778 775 773 770 766 763 759 756 753 750 748 745 742 740 737 734 731 727 724 722 721 719 717 715 714 714 714 713 712 711 712 714 713 713 713 714 715 716 716 716 718 718 719 721
871 871 871 870 869 868 867 866 864 864 862 861 860 857 855 853 851 848 846 842 839 836 832 830 827 824 822 819 816 813 810 807 804 801 798 795 792 789 786 783 779 776 773 770 767 764 760 756 753 750 747 744 741 738 736 733 730 727 724 720 718 715 713 711 710 710 710 710 709 708 707 708 709 708 707 708 709 710 710 711 712 713 714 715 717
871 871 871 869 869 868 868 867 866 865 864 862 860 857 855 852 849 846 843 840 838 834 831 828 825 823 820 817 814 811 808 805 802 799 796 794 791 787 784 781 778 774 771 768 764 761 757 754 750 747 744 740 738 735 731 728 726 723 719 716 713 711 708 707 705 705 705 705 704 703 702 703 704 703 702 703 704 704 705 706 707 708 710 711 712
871 872 871 870 871 870 869 869 867 866 864 861 859 856 853 850 847 845 842 839 836 833 830 827 825 822 819 816 814 811 808 805 802 798 795 792 789 785 782 779 776 772 768 764 761 758 754 751 747 744 741 737 734 731 728 724 721 718 715 712 709 706 704 702 701 700 700 700 699 698 698 698 698 697 697 698 698 699 700 701 702 704 705 707 708
873 873 872 871 871 870 870 869 867 866 863 860 857 854 851 848 846 844 842 839 836 833 830 827 824 822 819 816 814 811 808 804 800 797 794 790 787 783 780 777 774 770 766 762 758 755 752 748 744 741 737 734 730 727 724 721 717 714 711 708 705 702 699 697 696 694 694 693 693 692 692 692 692 691 691 692 693 694 695 696 698 699 701 702 703
873 872 871 871 871 870 870 869 866 864 861 858 856 853 851 848 846 844 841 838 835 832 830 827 825 822 819 816 813 810 806 803 799 796 792 788 785 781 778 775 771 768 764 760 756 752 748 745 741 737 734 730 727 723 720 717 713 710 707 704 700 698 695 693 691 689 688 687 687 687 686 686 686 685 686 687 688 689 691 692 693 695 697 698 699
873 871 871 871 871 870 869 866 864 862 859 857 854 852 850 848 845 843 840 837 835 832 829 827 824 821 818 815 811 808 804 801 797 794 790 787 783 779 776 772 769 765 761 757 753 749 745 740 737 733 730 726 723 719 716 712 708 705 702 698 695 692 690 687 685 684 682 682 681 681 680 680 680 680 680 682 683 684 686 687 689 691 692 693 694
872 871 871 871 870 869 867 864 863 860 857 855 852 850 848 846 845 842 839 837 834 831 829 826 823 820 817 813 810 807 803 799 796 792 788 784 781 777 773 768 765 761 757 753 749 745 742 737 732 728 725 721 718 714 710 707 703 700 696 692 688 685 683 680 678 677 676 675 674 674 674 674 674 675 675 677 678 679 681 682 684 686 687 688 690
872 871 871 871 870 868 866 864 861 858 855 852 850 850 848 846 844 842 839 837 834 831 828 825 822 818 815 812 808 804 801 797 793 790 786 782 778 774 769 765 761 757 753 750 746 741 737 733 729 724 720 716 712 709 705 701 698 694 690 687 682 679 676 674 671 670 668 668 668 667 668 669 669 670 671 672 674 675 676 677 679 681 682 683 684
872 871 872 871 869 867 865 862 859 856 854 852 851 850 848 846 844 841 839 836 833 830 827 823 821 817 813 810 806 802 798 794 791 787 783 779 775 770 766 762 757 753 749 745 742 738 733 729 725 720 716 712 707 704 700 696 692 688 684 681 677 673 670 667 665 663 662 662 662 662 662 663 665 666 667 668 670 671 672 674 675 676 677 677 678
873 872 872 870 869 867 864 861 858 856 854 853 852 850 848 846 843 840 838 835 832 829 826 822 819 815 812 808 804 800 796 791 788 784 780 776 772 767 764 759 755 750 746 742 738 734 729 725 721 716 711 707 702 699 695 690 686 682 678 675 671 668 665 662 659 658 657 656 656 657 658 659 660 662 663 665 666 668 669 671 671 672 673 673 674
874 873 872 870 868 866 864 861 858 856 854 853 851 850 847 845 842 839 836 834 831 827 824 821 817 813 810 806 802 798 793 788 785 781 777 773 769 764 760 756 752 748 743 738 734 729 725 720 716 711 706 702 698 694 690 685 681 677 672 669 666 663 660 656 654 652 651 651 651 652 654 655 656 658 660 661 663 664 666 667 668 668 669 670 671
874 872 871 869 867 865 862 860 857 855 854 852 850 849 846 843 841 838 835 832 829 826 822 819 814 810 807 803 799 794 790 785 782 778 774 769 765 761 757 753 749 745 740 735 730 726 721 716 711 707 702 697 693 689 685 680 676 672 667 664 662 659 655 652 649 647 646 646 647 648 650 652 653 655 656 658 660 661 662 663 664 665 666 667 668
872 871 869 868 866 864 861 859 857 855 853 852 850 847 845 842 839 837 833 830 827 823 820 816 812 808 804 800 796 791 786 783 779 775 771 766 762 758 754 749 745 740 736 732 727 723 717 711 707 703 698 693 689 685 681 675 671 667 663 660 658 655 652 649 647 645 644 643 644 645 647 648 650 652 653 655 656 657 659 660 661 662 663 664 665
872 870 869 867 865 863 861 859 857 855 853 851 849 845 843 840 837 834 831 827 824 821 817 813 809 806 802 798 795 790 785 781 777 773 768 764 760 756 751 747 743 737 733 728 724 719 713 708 703 699 694 689 684 679 675 671 667 663 660 657 655 652 650 648 645 643 642 642 642 643 644 646 647 649 650 652 654 654 655 656 657 659 660 661 661
870 869 868 866 864 863 861 859 856 854 851 849 846 843 840 837 834 831 828 825 822 818 815 812 808 805 801 797 794 790 785 780 776 772 767 763 758 754 749 746 741 736 730 725 721 716 710 705 700 694 690 685 679 674 671 666 662 659 656 654 652 650 648 646 644 642 641 640 641 641 643 644 645 646 648 649 650 651 651 652 654 656 657 657 658
870 869 867 865 864 862 859 857 854 851 849 847 844 841 839 835 833 830 826 823 821 817 814 811 807 804 800 797 793 788 784 780 775 771 766 762 757 752 748 744 740 734 728 723 719 714 707 701 695 690 685 680 674 669 665 662 658 655 652 651 649 647 645 644 643 641 640 640 640 640 641 642 642 644 645 646 647 647 649 650 651 653 653 653 654
869 868 866 864 862 860 857 854 852 850 848 846 843 841 838 835 832 829 826 823 820 817 813 810 806 802 798 795 791 786 782 778 774 769 764 760 756 751 746 741 737 732 726 720 716 711 704 697 691 685 680 674 669 664 660 657 654 651 649 647 646 644 643 642 641 639 638 638 638 638 639 640 640 641 642 643 643 644 645 647 648 649 649 650 652
868 866 865 862 860 858 855 853 852 850 847 845 842 840 837 834 831 829 826 823 819 815 812 807 803 800 795 792 788 784 780 776 772 767 763 758 754 750 744 740 735 729 724 718 712 707 701 693 686 681 675 669 664 660 656 653 650 648 645 644 643 642 640 640 639 638 637 637 637 637 637 638 639 639 639 640 640 641 642 643 644 645 646 647 649
867 865 862 860 858 856 854 853 851 849 847 844 842 839 836 833 830 827 824 821 818 813 809 805 801 797 793 789 785 782 778 774 770 766 761 756 752 748 743 738 733 727 721 716 709 704 698 691 683 677 671 665 661 656 653 650 647 645 642 640 639 638 637 637 636 635 635 635 634 635 635 636 637 637 637 637 637 637 638 639 640 641 642 644 645
865 863 861 860 858 856 854 852 850 848 845 843 840 837 834 832 829 826 823 819 816 812 807 803 799 794 791 787 783 779 775 771 768 764 760 754 749 745 740 736 731 726 719 713 707 702 696 689 682 674 668 662 658 653 650 647 644 642 639 637 636 634 634 633 632 631 632 632 632 632 633 633 634 634 634 634 634 635 635 636 636 637 638 639 641
863 862 860 859 857 855 854 851 849 846 844 841 839 836 833 830 827 824 821 817 813 810 805 801 797 793 789 785 781 777 773 769 766 762 758 753 747 743 738 734 729 725 719 712 706 701 695 688 681 674 667 661 656 652 647 644 641 639 636 634 632 631 630 630 629 629 629 629 629 630 630 630 631 631 631 631 631 632 632 633 633 634 634 636 638
863 861 859 858 856 854 852 849 847 845 842 840 838 835 831 828 825 822 819 815 811 807 803 799 795 791 787 782 778 775 771 768 765 761 757 752 746 741 737 732 728 723 718 712 706 701 695 688 681 675 668 662 656 651 646 641 637 634 632 631 629 628 627 627 626 626 626 627 627 627 627 627 628 628 628 628 628 628 629 630 631 631 632 633 634
861 859 858 857 854 852 850 847 845 843 841 839 837 834 831 827 824 821 817 814 810 805 801 797 793 789 785 781 777 772 769 765 762 759 756 752 747 741 736 732 727 722 717 712 707 701 695 688 682 677 670 663 657 652 646 640 634 629 627 626 625 625 625 624 624 624 624 625 625 625 625 625 625 625 625 625 625 626 627 627 628 629 629 630 631
859 858 856 854 853 850 848 846 843 841 839 837 834 832 830 826 822 819 815 812 808 804 799 795 791 787 784 780 776 771 767 763 760 756 753 750 746 741 736 732 727 722 717 712 707 701 695 689 684 678 671 665 659 654 648 641 634 628 624 623 622 622 622 622 623 623 623 623 623 623 623 623 623 622 622 622 623 624 625 625 626 626 627 628 629
858 856 854 852 851 849 846 844 842 839 837 835 832 830 827 824 820 817 813 809 806 802 798 794 790 786 783 779 775 771 767 762 758 755 752 748 744 740 735 731 728 723 719 714 709 703 697 691 686 681 674 667 661 656 650 644 638 632 626 623 621 621 621 621 622 622 623 623 622 622 622 622 621 621 620 620 620 621 623 623 624 624 625 626 627
856 854 852 851 849 847 845 842 839 837 835 832 830 827 824 821 818 815 812 808 804 800 797 792 788 785 781 778 774 770 767 762 757 754 751 748 745 741 736 731 727 724 720 715 711 706 701 694 688 683 678 671 666 660 654 648 642 636 631 626 624 623 622 622 622 623 623 622 622 622 622 621 621 620 619 619 619 620 621 622 622 623 623 624 625
854 852 851 849 847 845 843 840 837 835 832 829 827 824 822 819 816 813 810 807 803 799 795 791 787 784 780 777 773 769 766 762 757 753 748 744 742 741 738 733 727 723 719 714 710 705 701 695 689 685 681 677 671 665 658 651 645 641 637 632 629 626 625 624 624 624 623 623 623 624 623 623 622 622 622 621 621 621 621 621 622 622 622 623 624
852 850 848 847 845 842 840 837 834 832 829 827 824 822 819 817 815 812 809 806 802 798 794 789 786 783 779 776 773 768 764 761 757 753 748 742 737 734 733 732 729 723 717 711 707 703 699 695 690 686 681 677 672 666 660 655 650 646 642 638 635 631 629 628 627 625 625 626 627 627 627 627 626 625 625 625 624 624 624 623 623 623 624 624 625